Knoxville, IA

11:56 PM CST on December 11, 2017 (GMT -0600)
Knoxville Municipal

Weather History for KOXV - October, 2013

Change the Weather History Date:

Sunday, October 20, 2013

  Actual Average Record
Temperature  
Mean Temperature 50 °F -  
Max Temperature 62 °F 62 °F 86 °F (2003)
Min Temperature 37 °F 40 °F 19 °F (1952)
Degree Days  
Heating Degree Days 16    
Moisture  
Dew Point 38 °F    
Average Humidity 62    
Maximum Humidity 81    
Minimum Humidity 45    
Precipitation  
Precipitation 0.00 in - - ()
Sea Level Pressure  
Sea Level Pressure 29.79 in    
Wind  
Wind Speed 6 mph (SW)    
Max Wind Speed 15 mph    
Max Gust Speed 21 mph    
Visibility 10 miles    
Events      
Averages and records for this station are not official NWS values.
T = Trace of Precipitation, MM = Missing Value Source: NWS Daily Summary

Daily Weather History Graph

Daily Weather History Graph

Search for Another Location

Airport or City:

Trip Planner

Search our weather history database for the weather conditions in past years. The results will help you decide how hot, cold, wet, or windy it might be!

Date:

Astronomy

Oct. 20, 2013 Rise Set
Actual Time 7:30 AM CDT 6:23 PM CDT
Civil Twilight 7:02 AM CDT 6:51 PM CDT
Nautical Twilight 6:29 AM CDT 7:23 PM CDT
Astronomical Twilight 5:57 AM CDT 7:55 PM CDT
Moon 7:31 PM CDT (10/20) 9:09 AM CDT (10/20)
Length of Visible Light 11h 49m
Length of Day
10h 53m
Full, 97% of the Moon is Illuminated
Oct 20
Full
Oct 26
Last Quarter
Nov 3
New
Nov 9
First Quarter
Nov 17
Full

Hourly Weather History & Observations

Time (CDT) Temp. Windchill Dew Point Humidity Pressure Visibility Wind Dir Wind Speed Gust Speed Precip Events Conditions
12:15 AM 42.8 °F - 30.2 °F 61% 29.84 in 10.0 mi Calm Calm - N/A   Clear
12:35 AM 39.2 °F 35.0 °F 30.2 °F 70% 29.85 in 10.0 mi SSW 5.8 mph - N/A   Clear
12:55 AM 39.2 °F 35.9 °F 32.0 °F 75% 29.85 in 10.0 mi SSW 4.6 mph - N/A   Clear
1:15 AM 39.2 °F 35.0 °F 30.2 °F 70% 29.85 in 10.0 mi SSW 5.8 mph - N/A   Clear
1:35 AM 39.2 °F - 30.2 °F 70% 29.85 in 10.0 mi Calm Calm - N/A   Clear
1:55 AM 39.2 °F 37.0 °F 30.2 °F 70% 29.84 in 10.0 mi NE 3.5 mph - N/A   Clear
2:15 AM 37.4 °F 32.1 °F 30.2 °F 75% 29.83 in 10.0 mi NE 6.9 mph - N/A   Clear
2:35 AM 39.2 °F 35.0 °F 32.0 °F 75% 29.83 in 10.0 mi ENE 5.8 mph - N/A   Scattered Clouds
2:55 AM 41.0 °F 35.8 °F 32.0 °F 70% 29.82 in 10.0 mi ENE 8.1 mph - N/A   Scattered Clouds
3:35 AM 39.2 °F 34.2 °F 32.0 °F 75% 29.81 in 10.0 mi East 6.9 mph - N/A   Scattered Clouds
3:55 AM 39.2 °F 37.0 °F 32.0 °F 75% 29.81 in 10.0 mi ESE 3.5 mph - N/A   Mostly Cloudy
4:15 AM 39.2 °F 33.6 °F 32.0 °F 75% 29.80 in 10.0 mi ESE 8.1 mph - N/A   Overcast
4:35 AM 39.2 °F 35.0 °F 32.0 °F 75% 29.80 in 10.0 mi ESE 5.8 mph - N/A   Overcast
4:55 AM 39.2 °F 35.0 °F 30.2 °F 70% 29.79 in 10.0 mi ESE 5.8 mph - N/A   Overcast
5:15 AM 41.0 °F 37.1 °F 30.2 °F 65% 29.78 in 10.0 mi ESE 5.8 mph - N/A   Overcast
5:35 AM 41.0 °F 36.4 °F 30.2 °F 65% 29.78 in 10.0 mi SE 6.9 mph - N/A   Overcast
5:55 AM 41.0 °F 36.4 °F 32.0 °F 70% 29.78 in 10.0 mi ESE 6.9 mph 12.7 mph N/A   Overcast
6:15 AM 41.0 °F 36.4 °F 32.0 °F 70% 29.77 in 10.0 mi ESE 6.9 mph - N/A   Overcast
6:35 AM 41.0 °F 35.8 °F 32.0 °F 70% 29.77 in 10.0 mi SE 8.1 mph - N/A   Overcast
6:55 AM 41.0 °F 35.8 °F 32.0 °F 70% 29.76 in 10.0 mi SE 8.1 mph - N/A   Overcast
7:15 AM 41.0 °F 37.1 °F 33.8 °F 76% 29.76 in 10.0 mi SE 5.8 mph - N/A   Overcast
7:35 AM 41.0 °F 35.8 °F 33.8 °F 76% 29.75 in 10.0 mi SSE 8.1 mph - N/A   Overcast
7:55 AM 41.0 °F 36.4 °F 35.6 °F 81% 29.75 in 10.0 mi SE 6.9 mph - N/A   Overcast
8:15 AM 42.8 °F 38.0 °F 35.6 °F 76% 29.75 in 10.0 mi SSE 8.1 mph - N/A   Overcast
8:35 AM 42.8 °F 38.6 °F 37.4 °F 81% 29.75 in 10.0 mi SSE 6.9 mph - N/A   Overcast
8:55 AM 44.6 °F 40.2 °F 37.4 °F 76% 29.75 in 10.0 mi South 8.1 mph - N/A   Mostly Cloudy
9:15 AM 44.6 °F - 39.2 °F 81% 29.75 in 10.0 mi Calm Calm - N/A   Scattered Clouds
9:35 AM 48.2 °F - 39.2 °F 71% 29.74 in 10.0 mi South 10.4 mph - N/A   Partly Cloudy
9:55 AM 50.0 °F - 41.0 °F 71% 29.75 in 10.0 mi WSW 5.8 mph 12.7 mph N/A   Mostly Cloudy
10:15 AM 51.8 °F - 41.0 °F 67% 29.74 in 10.0 mi SW 8.1 mph - N/A   Mostly Cloudy
10:35 AM 53.6 °F - 41.0 °F 62% 29.73 in 10.0 mi South 6.9 mph - N/A   Mostly Cloudy
10:55 AM 55.4 °F - 41.0 °F 58% 29.73 in 10.0 mi SSW 10.4 mph - N/A   Scattered Clouds
11:15 AM 57.2 °F - 41.0 °F 55% 29.74 in 10.0 mi SW 12.7 mph - N/A   Mostly Cloudy
11:35 AM 55.4 °F - 41.0 °F 58% 29.75 in 10.0 mi SW 11.5 mph - N/A   Scattered Clouds
11:55 AM 57.2 °F - 41.0 °F 55% 29.74 in 10.0 mi SW 8.1 mph 15.0 mph N/A   Clear
12:15 PM 57.2 °F - 41.0 °F 55% 29.73 in - SSW 10.4 mph - N/A   Clear
12:35 PM 59.0 °F - 41.0 °F 51% 29.73 in 10.0 mi SW 9.2 mph 16.1 mph N/A   Partly Cloudy
12:55 PM 60.8 °F - 39.2 °F 45% 29.74 in 10.0 mi WSW 11.5 mph - N/A   Partly Cloudy
1:15 PM 60.8 °F - 41.0 °F 48% 29.73 in 10.0 mi WSW 8.1 mph 16.1 mph N/A   Partly Cloudy
1:35 PM 60.8 °F - 41.0 °F 48% 29.75 in 10.0 mi SW 15.0 mph - N/A   Partly Cloudy
1:55 PM 60.8 °F - 41.0 °F 48% 29.74 in 10.0 mi SW 13.8 mph 19.6 mph N/A   Clear
2:15 PM 60.8 °F - 41.0 °F 48% 29.74 in 10.0 mi SW 12.7 mph - N/A   Clear
2:35 PM 60.8 °F - 41.0 °F 48% 29.73 in 10.0 mi SW 8.1 mph - N/A   Clear
2:55 PM 60.8 °F - 41.0 °F 48% 29.72 in 10.0 mi WSW 6.9 mph - N/A   Clear
3:15 PM 62.6 °F - 41.0 °F 45% 29.72 in 10.0 mi West 6.9 mph - N/A   Clear
3:35 PM 62.6 °F - 41.0 °F 45% 29.72 in 10.0 mi West 9.2 mph - N/A   Clear
3:55 PM 62.6 °F - 41.0 °F 45% 29.72 in 10.0 mi West 6.9 mph 12.7 mph N/A   Scattered Clouds
4:15 PM 62.6 °F - 41.0 °F 45% 29.74 in 10.0 mi WSW 8.1 mph - N/A   Mostly Cloudy
4:35 PM 60.8 °F - 41.0 °F 48% 29.75 in 10.0 mi WSW 6.9 mph - N/A   Overcast
4:55 PM 60.8 °F - 42.8 °F 52% 29.76 in 10.0 mi SW 8.1 mph - N/A   Overcast
5:15 PM 60.8 °F - 42.8 °F 52% 29.77 in 10.0 mi SW 6.9 mph - N/A   Mostly Cloudy
5:35 PM 60.8 °F - 42.8 °F 52% 29.77 in 10.0 mi SW 8.1 mph - N/A   Mostly Cloudy
5:55 PM 59.0 °F - 42.8 °F 55% 29.77 in 10.0 mi WSW 6.9 mph - N/A   Mostly Cloudy
6:15 PM 59.0 °F - 42.8 °F 55% 29.78 in 10.0 mi WSW 5.8 mph - N/A   Overcast
6:35 PM 59.0 °F - 42.8 °F 55% 29.78 in 10.0 mi SW 5.8 mph - N/A   Overcast
6:55 PM 57.2 °F - 42.8 °F 59% 29.79 in 10.0 mi WSW 5.8 mph - N/A   Overcast
7:15 PM 55.4 °F - 41.0 °F 58% 29.81 in 10.0 mi West 10.4 mph 19.6 mph N/A   Overcast
7:35 PM 55.4 °F - 41.0 °F 58% 29.81 in 10.0 mi WNW 6.9 mph - N/A   Overcast
7:55 PM 55.4 °F - 39.2 °F 54% 29.82 in 10.0 mi WNW 9.2 mph - N/A   Overcast
8:15 PM 57.2 °F - 39.2 °F 51% 29.83 in 10.0 mi NW 11.5 mph - N/A   Overcast
8:35 PM 55.4 °F - 37.4 °F 51% 29.84 in 10.0 mi WNW 9.2 mph - N/A   Scattered Clouds
8:55 PM 53.6 °F - 39.2 °F 58% 29.85 in 10.0 mi NW 6.9 mph - N/A   Mostly Cloudy
9:15 PM 53.6 °F - 37.4 °F 54% 29.85 in 10.0 mi NW 11.5 mph 18.4 mph N/A   Overcast
9:35 PM 53.6 °F - 39.2 °F 58% 29.86 in 10.0 mi NW 13.8 mph 20.7 mph N/A   Scattered Clouds
9:55 PM 51.8 °F - 39.2 °F 62% 29.87 in 10.0 mi NW 11.5 mph 18.4 mph N/A   Mostly Cloudy
10:15 PM 51.8 °F - 39.2 °F 62% 29.88 in 10.0 mi WNW 10.4 mph - N/A   Scattered Clouds
10:35 PM 50.0 °F - 39.2 °F 66% 29.88 in 10.0 mi WNW 10.4 mph - N/A   Clear
10:55 PM 50.0 °F - 39.2 °F 66% 29.89 in 10.0 mi NW 11.5 mph 19.6 mph N/A   Clear
11:15 PM 48.2 °F - 39.2 °F 71% 29.90 in 10.0 mi WNW 8.1 mph - N/A   Clear
11:35 PM 48.2 °F - 39.2 °F 71% 29.91 in 10.0 mi NW 9.2 mph - N/A   Clear
11:55 PM 46.4 °F 42.4 °F 39.2 °F 76% 29.91 in 10.0 mi NW 8.1 mph 13.8 mph N/A   Clear